This demonstration page uses our WeatherBlox Daily Observations layout. Learn more.

Left ArrowRight Arrow

Hourly Observations for February 12, 2018

Temp ( °F °C ) Dew Point ( °F °C ) Humidity (%) Winds ( mph kmh ) Pressure ( in mb ) Visibility ( mi km ) Precip ( " mm )
12:54 am 00:54 Clear 0 -17.8 -4 -20 83 83 N 10 17 30.54 1034 10 16 0.00 0.00
1:54 am 01:54 Clear 0 -17.8 -4 -20 83 83 NNW 5 7 30.56 1035 10 16 0.00 0.00
2:54 am 02:54 Clear -2 -18.9 -6 -21.1 83 83 N 6 9 30.57 1035 10 16 0.00 0.00
3:54 am 03:54 Clear -2 -18.9 -6 -21.1 83 83 N 6 9 30.60 1036 10 16 0.00 0.00
4:54 am 04:54 Clear -3 -19.4 -6 -21.1 86 86 N 6 9 30.62 1037 10 16 0.00 0.00
5:54 am 05:54 Clear 3 -16.1 -2 -18.9 79 79 N 6 9 30.66 1038 10 16 0.00 0.00
6:54 am 06:54 Clear 5 -15 0 -17.8 79 79 ENE 5 7 30.67 1039 10 16 0.00 0.00
7:54 am 07:54 Sunny 6 -14.4 0 -17.8 76 76 ENE 7 11 30.71 1040 9 14 0.00 0.00
8:54 am 08:54 Sunny 7 -13.9 1 -17.2 76 76 NE 7 11 30.74 1041 9 14 0.00 0.00
9:54 am 09:54 Sunny 10 -12.2 3 -16.1 73 73 E 10 17 30.76 1042 10 16 0.00 0.00
10:54 am 10:54 Sunny 12 -11.1 4 -15.6 70 70 E 12 19 30.76 1042 10 16 0.00 0.00
11:54 am 11:54 Sunny 16 -8.9 5 -15 62 62 E 6 9 30.75 1041 10 16 0.00 0.00
12:54 pm 12:54 Sunny 19 -7.2 8 -13.3 62 62 E 10 17 30.71 1040 10 16 0.00 0.00
1:54 pm 13:54 Sunny 20 -6.7 8 -13.3 60 60 E 13 20 30.68 1039 10 16 0.00 0.00
2:54 pm 14:54 Sunny 20 -6.7 8 -13.3 60 60 E 12 19 30.69 1039 10 16 0.00 0.00
3:54 pm 15:54 Sunny 19 -7.2 9 -12.8 65 65 ENE 15 24 30.66 1038 10 16 0.00 0.00
4:54 pm 16:54 Sunny 19 -7.2 8 -13.3 62 62 E 12 19 30.64 1038 10 16 0.00 0.00
5:54 pm 17:54 Cloudy 18 -7.8 8 -13.3 65 65 E 10 17 30.63 1037 10 16 0.00 0.00
6:54 pm 18:54 Cloudy 18 -7.8 8 -13.3 65 65 E 9 15 30.63 1037 10 16 0.00 0.00
7:54 pm 19:54 Cloudy 18 -7.8 8 -13.3 65 65 ENE 12 19 30.61 1037 10 16 0.00 0.00
8:54 pm 20:54 Cloudy 19 -7.2 10 -12.2 68 68 E 13 20 30.59 1036 10 16 0.00 0.00
9:54 pm 21:54 Cloudy 20 -6.7 11 -11.7 68 68 E 7 11 30.60 1036 10 16 0.00 0.00
10:54 pm 22:54 Cloudy 21 -6.1 12 -11.1 68 68 E 9 15 30.60 1036 10 16 0.00 0.00
11:54 pm 23:54 Cloudy 21 -6.1 12 -11.1 68 68 E 9 15 30.60 1036 10 16 0.00 0.00

Powered by AerisWeather